| time (UTC) | temp F | wind direction | speed MPH | gust MPH | rain 1hr in | rain 24hr in | rain mn in | humidity % | barometer mb |
| 20260831034322 | 87 | 158 | 4.0 | 11.0 | 0.00 | 0.00 | 0.00 | 66 | 1015.3 |
| 20260831033328 | 88 | 136 | 5.0 | 11.0 | 0.00 | 0.00 | 0.00 | 65 | 1015.2 |
| 20260831032339 | 88 | 148 | 3.0 | 11.0 | 0.00 | 0.00 | 0.00 | 65 | 1015.1 |
| 20260831031330 | 88 | 115 | 5.0 | 14.0 | 0.00 | 0.00 | 0.00 | 65 | 1015.2 |
| 20260831030340 | 88 | 152 | 4.0 | 11.0 | 0.00 | 0.00 | 0.00 | 65 | 1015.0 |
| 20260831025331 | 88 | 131 | 5.0 | 12.0 | 0.00 | 0.00 | 0.00 | 64 | 1014.8 |
| 20260831024321 | 89 | 109 | 5.0 | 13.0 | 0.00 | 0.00 | 0.00 | 63 | 1014.6 |
| 20260831023333 | 88 | 94 | 6.0 | 12.0 | 0.00 | 0.00 | 0.00 | 61 | 1014.4 |
| 20260831022324 | 87 | 122 | 2.0 | 9.0 | 0.00 | 0.00 | 0.00 | 58 | 1014.2 |
| 20260831021333 | 87 | 134 | 0.0 | 1.0 | 0.00 | 0.00 | 0.00 | 58 | 1014.0 |
| 20260831020324 | 87 | 134 | 0.0 | 1.0 | 0.00 | 0.00 | 0.00 | 57 | 1013.9 |
| 20260831015335 | 88 | 134 | 0.0 | 1.0 | 0.00 | 0.00 | 0.00 | 56 | 1013.9 |
| 20260831014346 | 89 | 134 | 0.0 | 2.0 | 0.00 | 0.00 | 0.00 | 55 | 1013.7 |
| 20260831013337 | 90 | 134 | 0.0 | 1.0 | 0.00 | 0.00 | 0.00 | 54 | 1013.7 |
| 20260831012347 | 90 | 134 | 0.0 | 1.0 | 0.00 | 0.00 | 0.00 | 53 | 1013.7 |
| 20260831011326 | 91 | 134 | 0.0 | 2.0 | 0.00 | 0.00 | 0.00 | 52 | 1013.7 |
| 20260831010346 | 92 | 134 | 0.0 | 3.0 | 0.00 | 0.00 | 0.00 | 51 | 1013.5 |
| 20260831005328 | 92 | 88 | 1.0 | 5.0 | 0.00 | 0.00 | 0.00 | 50 | 1013.6 |
| 20260831004336 | 94 | 110 | 1.0 | 3.0 | 0.00 | 0.00 | 0.00 | 49 | 1013.5 |
| 20260831003324 | 94 | 120 | 1.0 | 5.0 | 0.00 | 0.00 | 0.00 | 48 | 1013.5 |
| 20260831002335 | 95 | 124 | 1.0 | 7.0 | 0.00 | 0.00 | 0.00 | 47 | 1013.4 |
| 20260831001326 | 95 | 104 | 2.0 | 4.0 | 0.00 | 0.00 | 0.00 | 47 | 1013.4 |
| 20260831000334 | 95 | 138 | 0.0 | 3.0 | 0.00 | 0.00 | 0.00 | 49 | 1013.4 |
| 20260830235325 | 94 | 149 | 0.0 | 3.0 | 0.00 | 0.00 | 0.00 | 49 | 1013.5 |
| 20260830234337 | 95 | 139 | 0.0 | 2.0 | 0.00 | 0.00 | 0.00 | 49 | 1013.5 |
| 20260830233328 | 95 | 139 | 0.0 | 6.0 | 0.00 | 0.00 | 0.00 | 49 | 1013.4 |
| 20260830232334 | 95 | 150 | 3.0 | 7.0 | 0.00 | 0.00 | 0.00 | 47 | 1013.6 |
| 20260830231324 | 96 | 89 | 3.0 | 7.0 | 0.00 | 0.00 | 0.00 | 47 | 1013.5 |
| 20260830230334 | 96 | 97 | 2.0 | 6.0 | 0.00 | 0.00 | 0.00 | 47 | 1013.4 |
| 20260830225322 | 97 | 106 | 1.0 | 6.0 | 0.00 | 0.00 | 0.00 | 45 | 1013.5 |
| 20260830224332 | 98 | 101 | 3.0 | 7.0 | 0.00 | 0.00 | 0.00 | 46 | 1013.7 |
| 20260830223321 | 98 | 131 | 0.0 | 8.0 | 0.00 | 0.00 | 0.00 | 44 | 1013.7 |
| 20260830222332 | 99 | 154 | 3.0 | 7.0 | 0.00 | 0.00 | 0.00 | 44 | 1013.8 |
| 20260830221343 | 98 | 64 | 2.0 | 8.0 | 0.00 | 0.00 | 0.00 | 46 | 1013.8 |
| 20260830220333 | 97 | 73 | 4.0 | 10.0 | 0.00 | 0.00 | 0.00 | 46 | 1013.9 |
| 20260830215345 | 98 | 127 | 3.0 | 9.0 | 0.00 | 0.00 | 0.00 | 46 | 1013.9 |
| 20260830214328 | 99 | 161 | 5.0 | 10.0 | 0.00 | 0.00 | 0.00 | 46 | 1014.0 |
| 20260830213347 | 99 | 139 | 2.0 | 8.0 | 0.00 | 0.00 | 0.00 | 44 | 1014.2 |
| 20260830212330 | 98 | 198 | 4.0 | 10.0 | 0.00 | 0.00 | 0.00 | 46 | 1014.3 |
| 20260830211321 | 99 | 100 | 5.0 | 9.0 | 0.00 | 0.00 | 0.00 | 44 | 1014.6 |
| 20260830210332 | 99 | 135 | 3.0 | 7.0 | 0.00 | 0.00 | 0.00 | 45 | 1014.6 |
| 20260830205323 | 99 | 186 | 3.0 | 8.0 | 0.00 | 0.00 | 0.00 | 45 | 1014.7 |
| 20260830204334 | 99 | 112 | 4.0 | 10.0 | 0.00 | 0.00 | 0.00 | 47 | 1015.1 |
| 20260830203347 | 98 | 131 | 4.0 | 8.0 | 0.00 | 0.00 | 0.00 | 46 | 1015.0 |
| 20260830202332 | 97 | 248 | 4.0 | 9.0 | 0.00 | 0.00 | 0.00 | 48 | 1015.1 |
| 20260830201322 | 96 | 70 | 4.0 | 9.0 | 0.00 | 0.00 | 0.00 | 49 | 1015.2 |
| 20260830200334 | 97 | 105 | 3.0 | 8.0 | 0.00 | 0.00 | 0.00 | 47 | 1015.6 |
| 20260830195323 | 97 | 198 | 3.0 | 12.0 | 0.00 | 0.00 | 0.00 | 48 | 1015.7 |
| 20260830194334 | 96 | 191 | 3.0 | 14.0 | 0.00 | 0.00 | 0.00 | 51 | 1015.6 |
| 20260830193324 | 97 | 155 | 5.0 | 12.0 | 0.00 | 0.00 | 0.00 | 49 | 1015.9 |
| 20260830192335 | 96 | 122 | 3.0 | 9.0 | 0.00 | 0.00 | 0.00 | 52 | 1016.1 |
| 20260830191326 | 96 | 231 | 3.0 | 11.0 | 0.00 | 0.00 | 0.00 | 50 | 1016.2 |
| 20260830190332 | 95 | 169 | 4.0 | 10.0 | 0.00 | 0.00 | 0.00 | 54 | 1016.4 |
| 20260830185342 | 95 | 250 | 3.0 | 11.0 | 0.00 | 0.00 | 0.00 | 53 | 1016.5 |
| 20260830184333 | 95 | 181 | 5.0 | 13.0 | 0.00 | 0.00 | 0.00 | 54 | 1016.6 |
| 20260830183343 | 94 | 151 | 4.0 | 10.0 | 0.00 | 0.00 | 0.00 | 56 | 1016.8 |
| 20260830182324 | 94 | 169 | 5.0 | 9.0 | 0.00 | 0.00 | 0.00 | 55 | 1016.9 |
| 20260830181341 | 94 | 140 | 5.0 | 12.0 | 0.00 | 0.00 | 0.00 | 56 | 1017.1 |
| 20260830180322 | 95 | 171 | 3.0 | 11.0 | 0.00 | 0.00 | 0.00 | 55 | 1017.4 |
| 20260830175333 | 94 | 229 | 2.0 | 9.0 | 0.00 | 0.00 | 0.00 | 58 | 1017.4 |
| 20260830174349 | 93 | 165 | 4.0 | 10.0 | 0.00 | 0.00 | 0.00 | 59 | 1017.6 |
| 20260830173330 | 94 | 96 | 3.0 | 9.0 | 0.00 | 0.00 | 0.00 | 59 | 1017.7 |
| 20260830172341 | 93 | 225 | 3.0 | 9.0 | 0.00 | 0.00 | 0.00 | 59 | 1018.0 |
| 20260830171332 | 93 | 190 | 5.0 | 11.0 | 0.00 | 0.00 | 0.00 | 58 | 1018.1 |
| 20260830170321 | 92 | 130 | 4.0 | 12.0 | 0.00 | 0.00 | 0.00 | 60 | 1018.1 |
| 20260830165333 | 91 | 169 | 3.0 | 11.0 | 0.00 | 0.00 | 0.00 | 63 | 1018.1 |
| 20260830164340 | 92 | 107 | 3.0 | 9.0 | 0.00 | 0.00 | 0.00 | 63 | 1018.2 |
| 20260830163332 | 91 | 148 | 3.0 | 6.0 | 0.00 | 0.00 | 0.00 | 65 | 1018.3 |
| 20260830162342 | 90 | 139 | 3.0 | 6.0 | 0.00 | 0.00 | 0.00 | 66 | 1018.3 |
| 20260830161332 | 90 | 150 | 2.0 | 7.0 | 0.00 | 0.00 | 0.00 | 66 | 1018.4 |
| 20260830160323 | 89 | 233 | 4.0 | 8.0 | 0.00 | 0.00 | 0.00 | 66 | 1018.4 |
| 20260830155332 | 89 | 202 | 4.0 | 7.0 | 0.00 | 0.00 | 0.00 | 67 | 1018.3 |
| 20260830154323 | 88 | 128 | 3.0 | 9.0 | 0.00 | 0.00 | 0.00 | 69 | 1018.3 |
| 20260830153334 | 88 | 117 | 5.0 | 9.0 | 0.00 | 0.00 | 0.00 | 69 | 1018.2 |
| 20260830152345 | 87 | 171 | 4.0 | 9.0 | 0.00 | 0.00 | 0.00 | 71 | 1018.1 |
| 20260830151336 | 86 | 160 | 4.0 | 8.0 | 0.00 | 0.00 | 0.00 | 74 | 1018.1 |
| 20260830150343 | 85 | 144 | 3.0 | 7.0 | 0.00 | 0.00 | 0.00 | 76 | 1017.9 |
| 20260830145324 | 84 | 243 | 4.0 | 11.0 | 0.00 | 0.00 | 0.00 | 77 | 1018.0 |
| 20260830144343 | 84 | 204 | 3.0 | 10.0 | 0.00 | 0.00 | 0.00 | 78 | 1018.0 |
| 20260830143325 | 84 | 189 | 2.0 | 9.0 | 0.00 | 0.00 | 0.00 | 80 | 1017.9 |
| 20260830142336 | 83 | 210 | 4.0 | 10.0 | 0.00 | 0.00 | 0.00 | 80 | 1018.0 |
| 20260830141327 | 82 | 143 | 3.0 | 8.0 | 0.00 | 0.00 | 0.00 | 82 | 1018.0 |
| 20260830140338 | 82 | 206 | 3.0 | 8.0 | 0.00 | 0.00 | 0.00 | 82 | 1017.8 |
| 20260830135328 | 82 | 240 | 3.0 | 9.0 | 0.00 | 0.00 | 0.00 | 82 | 1017.8 |
| 20260830134339 | 82 | 232 | 2.0 | 5.0 | 0.00 | 0.00 | 0.00 | 81 | 1017.8 |
| 20260830133331 | 82 | 133 | 0.0 | 4.0 | 0.00 | 0.00 | 0.00 | 83 | 1017.7 |
| 20260830132342 | 81 | 245 | 2.0 | 5.0 | 0.00 | 0.00 | 0.00 | 84 | 1017.6 |
| 20260830131332 | 80 | 194 | 2.0 | 6.0 | 0.00 | 0.00 | 0.00 | 85 | 1017.4 |
| 20260830130323 | 80 | 227 | 0.0 | 3.0 | 0.00 | 0.00 | 0.00 | 85 | 1017.4 |
| 20260830125333 | 79 | 224 | 0.0 | 1.0 | 0.00 | 0.00 | 0.00 | 87 | 1017.4 |
| 20260830124324 | 78 | 205 | 1.0 | 2.0 | 0.00 | 0.00 | 0.00 | 88 | 1017.4 |
| 20260830123334 | 76 | 153 | 0.0 | 0.0 | 0.00 | 0.00 | 0.00 | 90 | 1017.3 |
| 20260830122344 | 75 | 153 | 0.0 | 0.0 | 0.00 | 0.00 | 0.00 | 91 | 1017.2 |
| 20260830121327 | 75 | 153 | 0.0 | 0.0 | 0.00 | 0.00 | 0.00 | 92 | 1017.1 |
| 20260830120335 | 75 | 153 | 0.0 | 2.0 | 0.00 | 0.00 | 0.00 | 91 | 1017.0 |
| 20260830115347 | 75 | 153 | 0.0 | 2.0 | 0.00 | 0.00 | 0.00 | 91 | 1016.9 |
| 20260830114338 | 75 | 139 | 0.0 | 2.0 | 0.00 | 0.00 | 0.00 | 90 | 1016.7 |
| 20260830113349 | 76 | 173 | 0.0 | 2.0 | 0.00 | 0.00 | 0.00 | 89 | 1016.6 |
| 20260830112340 | 76 | 168 | 1.0 | 4.0 | 0.00 | 0.00 | 0.00 | 89 | 1016.7 |
| 20260830111321 | 76 | 155 | 1.0 | 4.0 | 0.00 | 0.00 | 0.00 | 88 | 1016.4 |
| 20260830110332 | 76 | 149 | 1.0 | 5.0 | 0.00 | 0.00 | 0.00 | 87 | 1016.4 |
| 20260830105323 | 76 | 142 | 1.0 | 5.0 | 0.00 | 0.00 | 0.00 | 86 | 1016.4 |
| 20260830104330 | 77 | 164 | 0.0 | 4.0 | 0.00 | 0.00 | 0.00 | 86 | 1016.3 |
| 20260830103338 | 77 | 221 | 2.0 | 6.0 | 0.00 | 0.00 | 0.00 | 85 | 1016.2 |
| 20260830102328 | 77 | 231 | 1.0 | 5.0 | 0.00 | 0.00 | 0.00 | 85 | 1016.2 |
| 20260830101335 | 77 | 152 | 3.0 | 5.0 | 0.00 | 0.00 | 0.00 | 84 | 1016.1 |
| 20260830100322 | 77 | 142 | 1.0 | 6.0 | 0.00 | 0.00 | 0.00 | 84 | 1016.2 |
| 20260830095333 | 78 | 184 | 1.0 | 4.0 | 0.00 | 0.00 | 0.00 | 83 | 1016.2 |
| 20260830094324 | 78 | 162 | 1.0 | 5.0 | 0.00 | 0.00 | 0.00 | 83 | 1016.0 |
| 20260830093334 | 78 | 180 | 0.0 | 4.0 | 0.00 | 0.00 | 0.00 | 82 | 1016.3 |
| 20260830092325 | 78 | 198 | 1.0 | 5.0 | 0.00 | 0.00 | 0.00 | 82 | 1016.1 |
| 20260830091336 | 79 | 226 | 1.0 | 6.0 | 0.00 | 0.00 | 0.00 | 81 | 1016.0 |
| 20260830090327 | 79 | 149 | 2.0 | 8.0 | 0.00 | 0.00 | 0.00 | 81 | 1016.2 |
| 20260830085335 | 79 | 212 | 0.0 | 4.0 | 0.00 | 0.00 | 0.00 | 81 | 1016.1 |
| 20260830084327 | 79 | 210 | 1.0 | 3.0 | 0.00 | 0.00 | 0.00 | 80 | 1016.1 |
| 20260830083338 | 80 | 172 | 1.0 | 5.0 | 0.00 | 0.00 | 0.00 | 79 | 1016.2 |
| 20260830082329 | 80 | 182 | 1.0 | 5.0 | 0.00 | 0.00 | 0.00 | 79 | 1016.2 |
| 20260830081338 | 80 | 195 | 2.0 | 9.0 | 0.00 | 0.00 | 0.00 | 78 | 1016.2 |
| 20260830080348 | 80 | 167 | 4.0 | 8.0 | 0.00 | 0.00 | 0.00 | 78 | 1016.2 |
| 20260830075339 | 81 | 203 | 3.0 | 7.0 | 0.00 | 0.00 | 0.00 | 77 | 1016.4 |
| 20260830074349 | 81 | 192 | 1.0 | 7.0 | 0.00 | 0.00 | 0.00 | 77 | 1016.4 |
| 20260830073330 | 81 | 207 | 2.0 | 6.0 | 0.00 | 0.00 | 0.00 | 77 | 1016.4 |
| 20260830072321 | 81 | 133 | 1.0 | 7.0 | 0.00 | 0.00 | 0.00 | 77 | 1016.5 |
| 20260830071332 | 82 | 185 | 0.0 | 7.0 | 0.00 | 0.00 | 0.00 | 77 | 1016.4 |
| 20260830070321 | 82 | 136 | 1.0 | 5.0 | 0.00 | 0.00 | 0.00 | 77 | 1016.5 |
| 20260830065332 | 82 | 146 | 0.0 | 5.0 | 0.00 | 0.00 | 0.00 | 76 | 1016.5 |
| 20260830064323 | 83 | 209 | 1.0 | 6.0 | 0.00 | 0.00 | 0.00 | 75 | 1016.5 |
| 20260830063330 | 83 | 194 | 3.0 | 9.0 | 0.00 | 0.00 | 0.00 | 75 | 1016.5 |
| 20260830062340 | 83 | 295 | 2.0 | 7.0 | 0.00 | 0.00 | 0.00 | 75 | 1016.5 |
| 20260830061331 | 83 | 141 | 2.0 | 7.0 | 0.00 | 0.00 | 0.00 | 75 | 1016.5 |
| 20260830060322 | 83 | 205 | 1.0 | 7.0 | 0.00 | 0.00 | 0.00 | 75 | 1016.6 |
| 20260830055332 | 84 | 134 | 1.0 | 4.0 | 0.00 | 0.00 | 0.00 | 75 | 1016.4 |
| 20260830054322 | 84 | 179 | 2.0 | 5.0 | 0.00 | 0.00 | 0.00 | 75 | 1016.3 |
| 20260830053332 | 84 | 155 | 1.0 | 7.0 | 0.00 | 0.00 | 0.00 | 75 | 1016.5 |
| 20260830052323 | 84 | 194 | 2.0 | 6.0 | 0.00 | 0.00 | 0.00 | 74 | 1016.5 |
| 20260830051333 | 85 | 150 | 2.0 | 6.0 | 0.00 | 0.00 | 0.00 | 74 | 1016.4 |
| 20260830050343 | 85 | 157 | 3.0 | 7.0 | 0.00 | 0.00 | 0.00 | 73 | 1016.4 |
| 20260830045332 | 85 | 143 | 1.0 | 7.0 | 0.00 | 0.00 | 0.00 | 73 | 1016.4 |
| 20260830044342 | 85 | 147 | 3.0 | 6.0 | 0.00 | 0.00 | 0.00 | 72 | 1016.2 |
| 20260830043324 | 86 | 159 | 1.0 | 6.0 | 0.00 | 0.00 | 0.00 | 70 | 1016.3 |
| 20260830042344 | 86 | 183 | 3.0 | 12.0 | 0.00 | 0.00 | 0.00 | 69 | 1016.5 |
| 20260830041326 | 86 | 131 | 2.0 | 7.0 | 0.00 | 0.00 | 0.00 | 67 | 1016.5 |
| 20260830040336 | 86 | 146 | 3.0 | 9.0 | 0.00 | 0.00 | 0.00 | 66 | 1016.5 |
| 20260830035327 | 86 | 159 | 4.0 | 9.0 | 0.00 | 0.00 | 0.00 | 64 | 1016.4 |